Regional Weather Roundup
Issued by NWS Wakefield, VA

Home | Current Version | Previous Version | Text Only | Print | Product List | Glossary Off
Versions: 1 2 3 4 5 6 7 8 9 10 11 12 13 14 15 16 17 18 19 20 21 22 23 24 25 26 27 28 29 30 31 32 33 34 35 36 37 38 39 40 41 42 43 44 45 46 47 48 49 50

000
ASUS41 KAKQ 301110
RWRAKQ

REGIONAL WEATHER ROUNDUP
NATIONAL WEATHER SERVICE WAKEFIELD VA
600 AM EST FRI JAN 30 2015

Note: "fair" indicates few or no clouds below 12,000 feet with no
significant weather and/or obstructions to visibility. * = Denotes
station may not report precipitation (e.g., rain,snow,etc.),
thunder or fog.

VAZ042-051-052>054-056-301200-
NORTHERN VIRGINIA

CITY           SKY/WX    TMP DP  RH WIND       PRES   REMARKS
WASH NATIONAL  PTCLDY    42  27  55 NW10G21   29.95R
DULLES         MOCLDY    37  27  67 NW17      29.95R
FORT BELVOIR   CLOUDY    40  28  60 NW16G25   29.96R
QUANTICO       CLOUDY    41  27  57 N17G26    29.97R
FREDERICKSBRG* CLOUDY    40  28  62 NW7       29.94R
STAFFORD*      MOCLDY    37  26  65 CALM      29.99R
WARRENTON      CLOUDY    41  32  71 NW10G23   29.96R
CULPEPER*      CLOUDY    41  28  60 N10G16    29.96R
MANASSAS*      CLOUDY    39  28  65 NW17G25   29.96R
LEESBURG*      PTCLDY    37  28  70 NW13G22   29.96R
WINCHESTER     CLOUDY    36  21  55 NW14      29.97R
FRONT ROYAL*   CLOUDY    36  27  69 NW13G18   29.96R
LURAY*         CLOUDY    37  30  75 NW12G24   29.96R
$$

VAZ048-049-060>072-079>083-301200-
CENTRAL AND SOUTH CENTRAL VIRGINIA

CITY           SKY/WX    TMP DP  RH WIND       PRES   REMARKS
RICHMOND       CLOUDY    42  27  55 NW7       29.94R
CHESTERFIELD*  CLOUDY    39  21  48 NW8       29.95R
PETERSBURG*    CLOUDY    44  28  54 NW7       29.94R
HANOVER        CLOUDY    39  25  57 VRB5      29.95R
TAPPAHANNOCK*  CLOUDY    39  24  53 CALM      29.94R
QUINTON*       CLOUDY    40  27  59 NW5       29.93R
CHARLOTTSVILLE CLOUDY    41  21  44 NW7G20    29.95R
GORDONSVILLE*  CLOUDY    42  24  48 NW9       29.95R
ORANGE*        MOCLDY    43  27  52 W8G17     29.96R
LOUISA*        MOCLDY    41  27  56 NW8       29.94R
BUMPASS*       CLOUDY    38  26  62 CALM      29.95R
FARMVILLE*     PTCLDY    44  27  52 NW7       29.95R
CREWE*         FAIR      43  27  54 NW14G20   29.94R
FORT PICKETT*  CLOUDY    42  29  60 NW12      29.93S
CHASE CITY*    FAIR      44  32  63 NW10G18   29.96R
CLARKSVILLE*   FAIR      41  30  65 NW9       29.96R
SOUTH HILL*    CLOUDY    42  29  60 NW5       30.00R
LAWRENCEVILLE* CLOUDY    42  30  61 NW5       29.93R
EMPORIA*       CLOUDY    36  30  80 CALM      29.96R
$$

VAZ088>098-301200-
SOUTHEAST VIRGINIA

CITY           SKY/WX    TMP DP  RH WIND       PRES   REMARKS
NORFOLK        LGT RAIN  41  33  73 W7        29.92R
VIRGINIA BEACH LGT RAIN  43  35  73 W10       29.91R
NORFOLK NAVAL  LGT RAIN  44  34  67 SW6       29.93S
WEST POINT*    CLOUDY    43  25  48 CALM      29.95R
SALUDA*        CLOUDY    37  33  87 CALM      29.93S
NEWPORT NEWS   CLOUDY    42  33  70 MISG      29.93R
LANGLEY AFB    LGT RAIN  39  34  82 NW5       29.92R
FORT EUSTIS    DRIZZLE   38  34  83 N3        29.91R
WILLIAMSBURG*    N/A     43  30  61 NW9       29.94R
HR EXEC AP*    CLOUDY    39  34  81 W3        29.95R
FRANKLIN*      LGT RAIN  40  30  66 W5        29.94R
WAKEFIELD      LGT RAIN  42  26  53 W3        29.93S
$$

VAZ020-022-025-037-045-301200-
WEST CENTRAL AND SOUTHWEST VIRGINIA

CITY           SKY/WX    TMP DP  RH WIND       PRES   REMARKS
STAUNTON*      CLOUDY    37  23  56 NW3       29.98R
WAYNESBORO*    CLOUDY    36  22  56 NW5       29.95R
HOT SPRINGS VA LGT SNOW  24  24 100 W26G37    29.85R WCI   7
LYNCHBURG      MOCLDY    39  22  50 NW16G26   30.00R
DANVILLE       CLOUDY    43  25  49 NW14G21   30.01R
SOUTH BOSTON*  FAIR      41  26  55 NW13G20   29.99R
MARTINSVILLE   CLOUDY    40  24  52 NW14G29   30.06R
ROANOKE        MOCLDY    37  20  50 NW20G30   30.04R
BLACKSBURG     CLOUDY    32  22  66 NW21G30   30.05R WCI  19
DUBLIN*        CLOUDY    33  25  71 NW12      30.06R WCI  25
MARION*        CLOUDY    32  24  72 W18G38    30.08R WCI  20
HILLSVILLE*    CLOUDY    31  22  70 NW24G31   30.01R WCI  17
RICHLANDS*     LGT SNOW  28  23  84 NW14G21   30.11R WCI  16
WISE*          FLURRIES  28  23  80 NW13G22   30.16R WCI  18
ABINGDON*      CLOUDY    33  24  69 N12G25    30.15R WCI  24
$$

MDZ021>025-VAZ099-100-301200-
SOUTHERN MARYLAND AND THE DELMARVA PENINSULA

CITY           SKY/WX    TMP DP  RH WIND       PRES   REMARKS
PATUXENT RIVER CLOUDY    39  26  59 NW8       29.92R
BAY BRIDGE APT   N/A     37  28  70 NW10      29.93R
LEONARDTOWN    CLOUDY    41  27  56 NW6       29.94R
DOVER          CLOUDY    38  28  67 W12       29.88S
GEORGETOWN     CLOUDY    38  27  64 W6        29.90R
EASTON         CLOUDY    40  30  67 NW14G20   29.94R
CAMBRIDGE      CLOUDY    41  30  65 NW7       29.91R
SALISBURY      LGT RAIN  40  31  70 NW8G20    29.91R
OCEAN CITY     LGT RAIN  38  30  73 NW8       29.90R
WALLOPS ISLAND LGT RAIN  37  32  82 NW12G21   29.93R
ACCOMACK*      LGT RAIN  36  32  87 NW14      29.94R
$$

NCZ012>017-030>032-301200-
NORTH CENTRAL AND EASTERN NORTH CAROLINA

CITY           SKY/WX    TMP DP  RH WIND       PRES   REMARKS
ROANOKE RAPIDS CLOUDY    37  34  87 SW3       29.95R
RALEIGH        CLOUDY    40  27  59 W3        29.98R
ELIZABETH CITY LGT RAIN  45  36  70 W9        29.93S
AHOSKIE*       CLOUDY    40  33  78 CALM      29.96R
EDENTON*       RAIN      45  39  78 W8        29.94S
CURRITUCK*     CLOUDY    46  34  62 W12       29.93R
KILL DEVIL HLS CLOUDY    47  38  69 SW8       29.91S
MANTEO         CLOUDY    46  39  76 SW5       29.93S
CAPE HATTERAS  CLOUDY    50  45  83 W13       29.95S
TARBORO*       DRIZZLE   43  36  74 W6        29.98R
GOLDSBORO      MIX PCPN  44  43  98 CALM      29.96R
WASHINGTON     LGT RAIN  45  39  79 W6        29.96R
GREENVILLE     DRIZZLE   45  39  81 W7        29.99R
NEW BERN       CLOUDY    51  40  65 W5        29.97S
WILMINGTON     LGT RAIN  50  44  80 SW7       29.97F
$$

VAZ048-301200-
ELSEWHERE

CITY           SKY/WX    TMP DP  RH WIND       PRES   REMARKS
HARRISBURG PA  LGT SNOW  31  26  82 NW8       29.91R
BALTIMORE      MOCLDY    34  27  75 W7        29.92R
ANNAPOLIS      CLOUDY    39  27  62 NW10G18   29.92R
ANDREWS AFB    MOCLDY    38  29  68 NW10      29.93R
PHILADELPHIA   CLOUDY    35  24  64 W9        29.89R
HENDERSON NC   CLOUDY    42  27  57 NW5       29.97R
GREENSBORO     MOCLDY    41  27  57 NW16G23   30.01R
ROCKY MOUNT    CLOUDY    44  32  62 W6        29.97R
$$

VAZ100-301200-
MARINE

STATION/POSITION TIME  TEMP    WIND        PRES    WAVE   SWELL
                       AIR SEA DIR/SP/G            HT/PER HT/PER
                 (UTC) (F)     (DEG/KT/KT) (MB)    (FT/S) (FT/S)
BRANDYWINE LGT   1100   38 36  290/ 14/ 17 1012.1R
CAPE MAY NJ      1100   37 36              1011.5R
LEWES DE         1100   39 36  290/ 14/ 17 1012.1R
15NM E FENWICK I 1100   38 40              1011.9R   4/ 6
OCEAN-CITY-INLET 1100   38 38  310/ 10/ 13 1012.0R
WACHAPREAGUE VA  1100   37 36  310/  2/  6 1013.3R
THOMAS POINT MD  1100   39 35  310/ 15/ 17 1014.3R
GOOSES REEF MD   1100   40     VRB 12/ 14  1012.1R
COVE POINT MD    1100   40     340/ 14/ 17 1012.9S
SOLOMONS ISLAND  1100      37                N/A
BISHOPS HEAD MD  1100   38 34  290/  5/  7 1012.5R
PINEY POINT MD   1100          290/  5/  5   N/A
POTOMAC MD       1100   38     300/  6/  6 1012.3R
CAMBRIDGE MD     1100   40 35  290/  9/ 12 1012.9R
LEWISETTA VA     1100   39 36  280/  3/  4 1013.3R
RAPPAHANNOCK LGT 1100          310/ 12/ 14 1014.1R
STINGRAY PT      1100   39     320/  6/  8 1014.1R
YORK RVR RNG VA  1100   40     310/  8/  9 1012.7R
YORKTOWN VA      1100   41 39  320/  6/  8 1012.9F
JAMESTOWN VA     1100   40     320/  6/  6   N/A
DOMINION TERM VA 1100   41     280/  5/  6 1013.1F
KIPTOPEKE VA     1100      44  300/ 10/ 12   N/A
CHES BAY BRIDGE  1100   42 40  250/ 13/ 17 1012.6R
CAPE HENRY VA    1100   42     250/ 11/ 16 1011.6R
CHESAPEAKE LGHT  1000   43     240/ 13/ 13 1012.9F
WILLOUBY STN VA  1100   41     260/ 10/ 11 1013.3S
S CRANEY ISL VA  1100          260/  5/  7 1013.0F
CAPE HENRY BUOY  1000      43                N/A     2/10
1ST LANDING BUOY 1100   42     270/ 16/ 17 1012.5R
CAPE CHARLES BUO 1100      41                N/A     3/ 3   2/11
OFFSHORE WE BUOY 1000      43                N/A     3/ 4   2/12
64NM E OF VA BCH 1100   49 49  250/ 17/ 21 1011.9F   4/ 5   2/11
DUCK PIER NC     1100   45 43  240/  9/ 11 1012.1R
44100 DUCK FRF   1100      44                N/A     2/12   2/12
44056 DUCK FRF   1000      43                N/A     2/11   2/11
OREGON INLET NC  1100   44 43  200/  8/  8 1013.2F
HATTERAS NC      1100   52 44  240/  9/ 15 1014.3R



USA.gov is the U.S. government's official web portal to all federal, state and local government web resources and services.